CAPE
1172 786 610 1143 648 88 167 137 33 272 93 224 292 138 49 177 182 133 287 300 897 1311 1876 2346 2785 2935 2609 2816 2870 2481 2676 2013 2301 2211 2095 1381 1195 1300 1493 1185 1286 1448 1325 1252 1328 1294 1316 1279 1363
0 1038 1396 1244 378 68 120 5 1 100 194 126 181 338 207 117 58 87 123 227 695 1356 1684 2149 2884 3145 2630 2585 2701 2598 2575 2394 2107 2009 1950 1349 1235 1202 1007 1266 1455 1411 1144 1100 1175 1356 1331 1420 1481
0 1322 478 678 423 145 86 1 10 196 184 114 163 156 214 87 31 224 272 473 446 967 1564 2054 3112 2968 2358 2335 2388 2341 2425 2365 2109 1690 1402 1256 1272 1057 1157 1163 1249 1173 1048 1173 1373 1497 1455 1500 1324
708 1412 896 588 150 225 55 47 62 414 280 247 157 113 175 72 23 155 312 406 536 573 1712 2823 3085 2318 2352 2337 2277 2215 2020 1795 1788 1559 1499 1430 1387 1333 1164 1112 1273 1231 1258 1354 1014 1191 1092 1215 1241
881 1252 425 282 446 381 212 291 407 294 206 253 202 188 284 136 0 63 308 600 782 1147 1755 2059 3040 2442 1651 1376 1461 1431 1344 1630 1797 1571 1614 1738 1492 1275 1662 1032 713 873 1171 943 952 1118 1035 1110 1130
472 873 58 133 260 480 362 386 295 320 164 132 129 155 335 0 0 0 145 993 945 1271 1848 2080 2411 2487 2235 2044 1723 2003 1809 1806 853 1238 1313 1015 881 1383 908 1025 1218 1531 872 757 729 677 722 700 808
42 49 94 87 421 489 384 283 444 261 83 25 17 98 194 54 37 11 742 992 948 1180 1497 1724 1843 2060 2228 2057 1677 1485 1832 1634 1610 1604 1658 1492 1290 1081 1248 1234 1305 1080 733 717 654 850 782 864 934
0 133 174 32 220 609 466 307 469 243 169 20 35 145 115 90 119 272 357 80 242 1065 1275 1283 1521 1554 1604 1323 1587 1648 1600 1623 1522 1433 1514 1657 1290 1305 1533 1885 1684 891 880 906 808 669 545 957 1063
0 200 97 1 11 417 496 429 311 9 0 27 105 158 214 167 107 121 366 479 471 949 972 1287 1357 1299 1224 1265 1324 1710 1632 1622 1451 926 1455 1874 886 895 1113 1311 1447 1119 957 975 1071 998 702 682 889
84 166 284 135 29 392 379 514 255 263 241 154 109 293 325 330 124 97 417 691 693 840 789 627 919 1141 1193 1478 859 1011 1230 1106 588 0 622 749 854 556 730 1461 1468 1289 1318 1345 1245 1277 1103 715 288
46 80 399 516 610 388 424 555 366 135 103 71 215 196 162 282 244 83 250 560 476 631 915 933 805 856 874 841 647 842 1003 623 529 100 699 774 806 697 605 823 963 681 1146 662 802 676 363 152 236
26 112 86 542 623 457 564 275 573 128 185 75 150 145 48 67 383 181 128 96 340 637 618 438 809 1049 1008 866 937 631 560 677 501 163 792 964 728 208 462 109 65 227 274 291 381 408 111 92 78
9 15 29 441 597 510 697 495 680 391 22 2 92 144 140 17 23 45 61 388 435 775 531 726 998 1157 943 702 804 740 770 330 421 162 33 0 512 911 139 30 185 99 539 465 942 452 294 228 195
9 0 0 258 561 384 569 745 432 532 138 0 9 54 75 44 44 71 96 418 453 582 869 765 1284 1092 987 732 490 646 524 389 340 82 0 349 942 112 55 504 451 696 917 1042 887 264 331 552 371
32 29 115 301 269 517 564 689 427 462 293 218 275 122 130 65 206 132 103 191 381 473 712 825 1053 1312 654 581 563 755 430 356 212 23 73 537 280 904 0 0 3 184 188 761 1035 727 992 684 706
0 0 55 338 135 679 391 300 557 390 276 284 420 92 372 182 213 294 121 151 524 447 625 702 1032 1189 977 755 838 571 432 378 83 605 506 142 693 140 37 4 1 26 0 8 530 290 520 0 127
0 10 73 279 361 701 523 613 661 358 89 228 53 308 426 380 333 342 233 367 513 341 648 589 701 864 877 704 857 651 351 33 38 121 257 263 686 68 0 0 0 0 25 16 19 280 661 79 258
8 32 92 179 341 646 691 656 733 697 739 535 114 104 457 408 416 338 359 347 288 649 575 533 486 761 790 638 354 219 35 0 0 4 759 461 1030 181 0 0 0 0 143 0 0 213 1009 562 565
2 0 0 330 317 606 584 616 394 153 41 329 376 139 141 374 350 325 328 378 384 770 655 469 502 624 719 415 155 350 0 0 0 102 1077 1143 880 788 105 0 150 122 231 292 0 656 890 184 329
0 0 62 247 59 596 359 432 1014 785 346 43 156 269 203 67 368 452 390 473 568 691 581 432 584 586 404 246 135 360 67 43 94 1323 1132 807 756 456 952 269 562 836 1267 891 738 798 785 213 17
0 0 21 138 336 426 128 203 300 675 382 558 287 203 346 217 236 446 513 577 711 763 661 664 734 576 526 604 569 629 600 871 644 291 658 1335 877 914 1298 1304 1306 1053 1387 706 187 88 997 28 59
0 3 73 78 93 93 7 16 396 252 343 400 37 196 209 526 314 432 563 527 691 763 712 893 744 606 567 587 384 590 199 424 455 747 956 727 527 123 1610 1407 1601 1362 1566 935 814 1347 918 414 43
0 0 0 136 20 0 185 171 527 254 50 39 117 59 104 523 496 509 687 569 832 817 1011 933 860 560 476 860 663 833 359 751 662 776 727 828 27 0 173 1599 1797 1613 1492 1283 1096 1033 986 814 306
0 0 2 35 28 0 16 93 64 144 1 89 17 12 170 297 639 648 693 626 679 968 1026 890 1117 944 904 1093 712 748 366 784 953 1051 1084 1189 212 0 589 1833 1867 1562 1403 1295 1462 1443 1277 1418 947
0 0 1 65 72 20 14 0 34 97 28 6 0 13 164 311 464 407 696 628 745 807 945 958 1368 1490 1105 1230 1044 785 871 804 690 847 875 1159 1299 1397 1463 1112 1365 1492 1653 1341 1357 1437 1062 1479 1178
0 0 0 4 28 4 3 3 77 43 26 31 0 2 35 315 441 512 623 674 752 1250 1069 1235 1535 1570 1048 911 1350 899 825 950 707 842 898 673 985 876 818 1536 745 1214 1536 1487 1267 1637 1215 1280 1448
0 0 0 0 0 42 53 243 71 69 43 261 397 545 606 521 634 843 1008 966 1019 911 1463 1641 1466 1517 1119 1140 1466 1342 1335 1601 1379 786 1217 1422 1293 1977 1516 562 3 108 121 1491 1808 1631 1527 1118 1526
0 0 0 0 0 30 63 139 115 102 106 185 601 752 741 526 539 912 1244 1063 1122 1011 1613 1801 1780 1572 1396 1349 1431 1609 1465 1353 1286 1406 1556 1543 924 1355 687 549 52 0 345 1993 1708 1765 1568 1620 1333
0 0 0 0 0 0 4 149 366 86 64 178 210 723 731 772 733 887 1098 1129 1345 1132 1366 2061 2115 2031 1785 1651 1551 1233 1292 1324 1367 1135 947 1452 1611 1600 1179 691 472 1052 1574 1710 1935 1805 1472 1548 1463
0 0 0 0 6 9 0 79 187 0 16 76 69 725 795 797 663 865 1117 1174 1358 1251 1331 1716 1778 2119 1858 1682 1700 1441 1489 1435 1527 1194 933 1039 1509 1543 1482 1217 1262 1876 2084 1827 1578 1725 1873 1507 1448
CIN
-234 -261 -212 -115 -34 -90 -56 -35 -57 -103 -45 -50 -41 -58 -78 -106 -72 -63 -114 -151 -79 -44 -1 0 0 0 0 0 0 0 0 0 0 0 0 -2 -7 0 0 0 0 0 -2 -1 -1 -2 -5 -7 -20
0 -164 -97 -34 -21 -31 -46 -45 -56 -161 -33 -76 -65 -26 -57 -97 -98 -116 -206 -149 -126 -68 -28 -1 0 0 0 0 0 0 0 0 0 0 0 -2 0 0 0 0 0 -1 0 -2 -6 -3 -3 -2 -5
0 -97 -78 -29 -25 -21 -50 -5 -125 -74 -111 -37 -40 -42 -34 -104 -79 -119 -124 -110 -162 -95 -49 -2 0 0 0 0 0 0 0 0 0 0 0 0 0 0 0 0 0 0 0 -2 -1 0 0 -1 -4
-154 -113 -161 -32 -18 -40 -111 -71 -127 -143 -45 -31 -60 -53 -33 -105 -87 -135 -94 -107 -135 -118 -34 0 0 0 0 0 0 0 0 0 0 0 0 0 0 0 0 0 0 0 0 -1 0 0 0 0 -7
-141 -148 -56 -50 -10 -29 -96 -114 -136 -54 -50 -12 -69 -46 -41 -68 0 -98 -80 -81 -126 -66 -20 -10 0 0 -5 -12 0 -2 -2 0 0 0 -4 0 0 0 0 0 -1 0 0 0 0 0 -4 -10 -11
-46 -107 -75 -29 -29 -12 -21 -16 -9 -71 -32 -18 -43 -60 -30 0 0 0 -91 -52 -92 -70 -16 -10 -4 0 0 0 0 0 0 0 -19 0 -1 -2 -3 0 0 0 0 0 0 -1 -5 -6 -20 -26 -19
-33 -29 -61 -57 -23 -13 -30 -7 -33 -93 -83 -98 -131 -39 -16 -47 -57 -43 -40 -90 -79 -71 -33 -36 -32 -4 0 0 0 -2 0 0 0 0 -1 -1 -10 -7 0 0 0 0 -3 -2 -8 -5 -18 -28 -26
0 -98 -91 -109 -50 -8 -5 -6 -25 -77 -131 -163 -137 -21 -54 -44 -37 -61 -91 -176 -139 -65 -43 -63 -46 -42 -13 -18 0 -3 -1 0 -5 -17 -10 0 -8 -3 0 0 0 -2 -10 -2 -5 -10 -17 -18 -26
0 -69 -120 -128 -144 -16 -18 -14 -66 -85 0 -95 -99 -29 -71 -64 -47 -47 -38 -46 -85 -42 -70 -54 -61 -62 -47 -28 -22 -2 0 0 -7 -30 -1 -5 -33 -26 -20 -23 -7 -12 -16 -9 -1 -5 -12 -22 -40
-42 -27 -85 -144 -84 -21 -15 -20 -84 -35 -75 -77 -81 -41 -50 -44 -33 -23 -34 -53 -46 -31 -55 -83 -53 -52 -41 -21 -59 -34 -15 -17 -67 0 -56 -64 -51 -58 -31 -22 -11 -16 -16 -16 -13 -7 -9 -58 -122
-23 -49 -24 -40 -38 -25 -8 -16 -26 -103 -82 -143 -48 -55 -18 -30 -39 -42 -37 -27 -44 -41 -41 -49 -102 -57 -45 -72 -92 -51 -31 -53 -79 -115 -74 -77 -52 -45 -46 -66 -57 -69 -33 -58 -40 -35 -39 -97 -134
-19 -48 -25 -21 -57 -33 -11 -32 -31 -89 -107 -150 -100 -91 -26 -79 -21 -23 -21 -31 -51 -58 -94 -105 -86 -38 -44 -59 -55 -52 -55 -55 -74 -103 -81 -69 -73 -79 -145 -157 -196 -138 -106 -125 -96 -91 -110 -124 -198
-7 -30 -11 -20 -49 -51 -15 -19 -25 -65 -232 -110 -96 -86 -63 -29 -40 -40 -69 -59 -99 -69 -72 -59 -52 -48 -74 -80 -67 -59 -49 -69 -75 -115 -136 0 -79 -55 -119 -185 -182 -174 -98 -147 -58 -89 -92 -83 -159
-14 0 0 -9 -38 -17 -7 -11 -25 -51 -110 -10 -56 -121 -82 -85 -60 -80 -57 -60 -64 -65 -66 -53 -52 -79 -90 -85 -93 -72 -83 -68 -62 -101 0 -105 -52 -84 -137 -123 -112 -103 -70 -67 -78 -139 -106 -78 -85
-13 -16 -18 -51 -34 -16 -30 -32 -18 -87 -85 -72 -43 -77 -41 -55 -50 -93 -82 -65 -40 -60 -65 -59 -54 -44 -72 -76 -93 -62 -69 -52 -54 -82 -77 -52 -61 -113 0 0 -162 -221 -194 -88 -71 -106 -77 -87 -71
0 0 -36 -40 -47 -17 -26 -41 -69 -136 -122 -89 -40 -33 -18 -58 -54 -71 -88 -95 -82 -52 -69 -76 -35 -54 -50 -68 -61 -67 -74 -63 -61 -57 -81 -63 -44 -244 -277 -119 -178 -260 0 -257 -137 -137 -110 0 -213
0 -33 -50 -30 -55 -20 -37 -48 -159 -259 -212 -101 -38 -22 -49 -59 -55 -67 -64 -72 -78 -87 -81 -73 -70 -62 -48 -66 -47 -41 -53 -99 -116 -119 -93 -76 -54 -159 0 0 0 0 -325 -206 -136 -172 -102 -186 -152
-13 -5 -32 -44 -19 -29 -23 -55 -182 -234 -157 -50 -23 -24 -49 -70 -98 -88 -91 -106 -97 -83 -73 -69 -79 -74 -58 -56 -76 -67 -100 0 -20 -129 -89 -71 -55 -171 0 0 0 0 -214 0 0 -203 -73 -122 -123
-1 0 0 -40 -24 -25 -30 -63 -103 -183 -209 -71 -38 -22 -22 -82 -94 -109 -99 -110 -112 -87 -80 -82 -74 -67 -51 -60 -76 -53 -18 0 0 -108 -58 -67 -62 -87 -225 0 -179 -223 -166 -136 0 -115 -48 -135 -192
0 0 -48 -62 -44 -34 -74 -138 -87 -145 -138 -103 -249 -41 -23 -49 -86 -76 -87 -88 -108 -120 -92 -91 -93 -100 -74 -89 -90 -65 -101 -124 -100 -43 -54 -80 -50 -64 -89 -185 -139 -85 -73 -89 -86 -75 -60 -158 -246
0 0 -10 -17 -46 -95 -90 -212 -197 -222 -262 -171 -246 -253 -50 -34 -85 -84 -80 -110 -124 -134 -125 -93 -89 -100 -75 -47 -60 -60 -65 -48 -43 -57 -50 -42 -56 -46 -36 -38 -42 -38 -57 -76 -83 -79 -55 -80 -183
0 -10 -4 -1 -32 -32 -60 -75 -168 -251 -248 -150 -340 -285 -120 -57 -78 -95 -83 -121 -157 -147 -138 -107 -94 -93 -85 -67 -49 -37 -59 -40 -55 -53 -79 -111 -97 -104 -62 -41 -37 -43 -57 -59 -70 -40 -64 -106 -122
0 0 -2 -66 -123 0 -40 -67 -66 -213 -135 -404 -326 -330 -178 -51 -81 -99 -82 -134 -131 -146 -118 -140 -95 -108 -78 -69 -45 -43 -56 -47 -52 -61 -61 -86 -173 0 -174 -58 -30 -40 -42 -37 -36 -39 -35 -59 -146
0 0 -30 -257 -382 0 -150 -70 -108 -206 -208 -429 -359 -216 -259 -108 -79 -91 -81 -122 -138 -129 -116 -154 -108 -109 -92 -54 -52 -42 -31 -42 -37 -51 -51 -75 -92 0 -139 -63 -41 -46 -36 -38 -35 -33 -37 -38 -63
0 0 -16 -44 -156 -297 -186 0 -65 -125 -325 -112 0 -395 -211 -169 -72 -102 -98 -101 -151 -169 -140 -151 -116 -89 -94 -52 -44 -48 -47 -52 -36 -46 -50 -45 -58 -84 -68 -86 -82 -47 -28 -41 -44 -35 -44 -43 -43
0 0 0 -45 -110 -136 -161 -158 -61 -80 -145 -202 -19 -66 -224 -145 -99 -116 -108 -119 -109 -107 -152 -144 -126 -96 -109 -83 -49 -76 -57 -51 -54 -55 -59 -67 -64 -70 -98 -97 -136 -65 -48 -42 -49 -36 -45 -50 -45
0 0 0 0 0 -29 -80 -47 -97 -279 -420 -131 -55 -46 -51 -93 -93 -92 -115 -113 -88 -138 -179 -157 -147 -116 -111 -91 -54 -43 -42 -23 -32 -53 -52 -40 -37 -84 -126 -132 -25 -265 -227 -69 -35 -32 -28 -42 -45
0 0 0 0 0 -22 -79 -154 -246 -138 -179 -102 -48 -57 -104 -69 -91 -79 -98 -98 -95 -122 -142 -150 -143 -135 -108 -71 -47 -35 -42 -46 -52 -52 -42 -35 -56 -57 -141 -190 -243 0 -219 -39 -31 -33 -42 -39 -55
0 0 0 0 0 0 -11 -52 -142 -233 -153 -117 -168 -53 -62 -63 -84 -75 -91 -108 -122 -125 -152 -137 -131 -109 -94 -74 -61 -71 -65 -68 -61 -71 -71 -56 -39 -42 -79 -159 -206 -105 -81 -53 -30 -36 -50 -51 -48
0 0 0 -2 -51 -61 0 -37 -139 0 -426 -359 -416 -64 -58 -74 -72 -69 -91 -95 -116 -144 -167 -154 -144 -105 -103 -91 -80 -91 -66 -81 -79 -111 -114 -83 -60 -69 -63 -65 -59 -37 -29 -39 -43 -42 -33 -52 -49
Wind_Speed
4 6 4 3 3 4 3 7 8 16 4 20 19 11 8 5 5 4 14 20 19 14 11 12 14 15 14 13 13 13 15 14 12 12 12 12 11 10 9 8 8 8 8 8 8 8 7 7 5
4 10 4 4 2 3 2 6 17 17 3 19 18 17 15 13 12 13 17 21 21 16 12 10 13 14 14 14 13 13 13 14 13 11 11 11 10 10 9 9 8 8 8 7 7 8 9 8 6
5 8 3 1 2 2 4 3 14 21 21 16 11 9 6 10 13 8 19 21 19 15 13 13 15 13 13 13 11 11 12 12 12 11 10 10 10 10 9 9 9 10 9 9 9 8 8 7 6
4 3 4 5 2 4 10 8 21 16 15 15 16 10 9 13 11 12 21 19 16 15 13 14 17 15 13 11 11 11 11 10 10 10 9 9 9 10 9 9 9 9 8 10 9 8 7 7 6
3 3 3 2 2 5 10 19 17 12 13 4 11 8 9 8 16 18 18 19 19 14 11 13 16 14 12 11 11 11 10 10 9 10 9 9 9 9 9 9 8 8 9 9 8 8 8 6 5
4 4 3 6 5 3 4 7 4 10 9 14 18 12 5 20 21 13 15 18 17 16 12 12 16 14 13 12 11 10 10 10 11 9 9 9 8 8 8 8 10 9 8 9 7 7 6 4 3
4 1 3 3 6 3 4 3 7 9 5 6 1 8 6 19 20 16 17 17 16 15 11 10 11 12 14 12 10 10 9 10 9 8 8 8 8 8 9 9 9 9 7 7 6 6 4 3 3
3 5 4 9 13 6 4 5 11 7 1 2 8 4 10 10 17 16 16 13 12 14 12 8 8 8 6 6 9 9 8 9 9 9 8 8 7 8 8 9 8 8 7 7 6 6 3 3 2
4 5 3 8 4 5 4 3 7 4 4 5 6 9 15 17 19 14 12 14 12 13 12 11 10 9 7 6 7 8 9 9 9 7 7 6 4 5 6 8 10 8 8 7 7 7 7 5 5
5 4 8 10 8 2 2 3 3 4 8 12 14 21 20 19 15 15 13 13 8 8 12 10 8 8 8 6 6 5 5 3 4 4 3 4 5 5 6 8 11 10 9 9 8 7 6 5 2
3 4 5 7 4 4 2 6 2 14 2 8 8 2 13 18 15 12 18 14 13 10 6 7 4 8 6 6 4 3 2 3 3 4 4 5 4 1 4 3 4 4 8 4 6 4 3 6 3
2 4 5 5 5 1 3 6 6 5 7 12 14 13 4 16 13 10 12 7 12 9 11 8 10 6 7 5 4 4 3 3 3 4 5 2 2 4 5 2 1 4 4 4 5 2 3 4 5
5 3 3 8 8 4 9 4 4 3 8 13 15 11 11 8 12 10 9 9 9 11 9 8 10 7 6 6 4 3 3 4 5 4 4 4 2 4 1 3 1 2 4 6 4 3 3 1 1
2 4 8 6 9 3 5 7 8 5 5 9 7 12 16 16 14 8 9 12 9 10 10 10 10 7 7 5 5 4 3 4 4 4 4 6 2 2 3 3 3 2 2 3 4 3 4 4 4
3 6 1 3 3 5 10 2 5 7 10 12 12 16 20 15 15 11 10 14 15 8 12 11 10 8 7 7 5 4 4 3 3 6 6 6 4 7 5 4 1 2 3 7 4 4 1 2 2
8 4 3 4 2 5 9 5 5 7 5 14 13 10 16 15 16 14 13 14 11 11 13 9 10 9 8 6 4 4 4 3 3 1 2 6 5 9 4 2 3 3 4 3 2 3 0 2 2
7 5 7 3 8 8 8 5 10 9 10 13 8 13 16 14 10 13 11 13 14 11 12 10 9 11 7 7 4 4 5 1 1 0 3 5 5 8 6 2 1 4 4 2 3 1 3 3 0
4 5 5 6 8 7 8 8 14 15 15 12 7 8 17 16 16 16 15 14 12 12 12 12 8 11 9 5 4 2 1 3 3 2 4 7 4 7 4 2 1 2 1 4 4 3 3 1 2
5 6 9 4 3 5 3 9 8 4 8 9 8 4 14 18 15 16 15 15 14 10 11 11 11 8 7 4 4 2 3 3 3 3 7 7 6 8 7 4 2 3 4 6 6 3 1 3 6
4 9 2 4 9 5 3 3 5 12 2 7 13 11 14 13 17 15 18 16 16 15 13 11 12 11 7 6 4 3 3 3 2 2 4 6 6 3 6 7 5 5 2 5 4 3 2 4 3
7 8 5 5 4 1 5 5 4 3 6 13 16 15 14 17 18 14 17 17 17 16 13 11 13 12 8 7 3 2 1 1 0 2 2 3 2 4 4 2 4 1 1 2 1 3 1 3 2
9 4 6 7 3 4 6 5 3 9 14 18 15 21 14 20 17 14 15 17 17 15 15 13 14 13 10 8 4 5 5 4 4 3 2 2 3 3 3 3 4 3 2 2 1 2 2 4 2
9 6 7 10 10 12 7 2 2 4 6 16 22 17 12 19 21 18 17 20 18 17 15 14 14 13 9 8 7 5 5 4 3 3 4 2 3 4 1 4 3 3 2 2 3 1 2 3 4
8 3 6 10 5 3 7 3 5 6 8 8 9 7 11 15 20 19 16 21 17 16 16 15 15 15 9 8 8 7 8 6 1 2 2 4 3 3 3 5 2 3 3 2 1 3 1 2 4
4 2 4 4 4 8 5 4 9 3 11 14 14 14 14 10 18 17 17 16 20 19 17 15 15 12 11 10 8 7 6 6 6 4 4 4 3 3 6 5 4 2 3 2 2 3 3 3 2
5 6 6 6 6 7 7 7 8 10 10 14 18 18 15 9 14 17 15 16 14 20 19 17 15 12 11 9 8 7 7 4 4 5 3 4 4 5 4 4 1 3 2 4 4 3 3 2 3
10 6 9 4 7 4 5 2 9 15 13 13 1 6 12 11 16 16 18 16 13 14 19 18 16 12 12 11 7 7 7 6 5 7 4 4 5 2 4 7 5 4 5 5 4 4 3 2 2
10 8 7 5 4 3 2 2 18 8 11 4 7 6 12 10 14 15 16 16 13 13 15 16 16 15 14 11 9 6 6 6 5 4 4 5 5 4 6 5 4 5 6 5 3 2 3 2 3
3 5 5 3 5 4 3 6 10 11 8 9 3 8 8 8 15 15 15 15 13 13 13 15 15 14 13 11 10 9 8 7 7 6 6 5 4 4 6 7 7 7 5 5 3 5 5 4 4
8 3 3 4 9 3 3 6 5 7 5 8 11 5 9 10 10 13 13 14 13 14 11 14 13 12 12 11 10 10 9 9 7 6 7 6 6 5 5 5 5 5 6 6 6 6 5 5 5
Wind_Direction
249 232 202 276 54 75 91 20 339 303 44 72 70 73 95 123 155 163 142 123 130 128 133 134 133 128 127 124 127 136 136 133 123 119 118 116 116 115 117 115 121 130 126 131 133 141 157 155 175
265 263 200 276 106 76 68 126 259 271 33 107 85 85 82 80 94 108 116 132 129 138 135 140 134 129 127 127 133 134 135 134 132 125 118 120 125 121 121 116 120 125 128 130 134 141 139 149 158
270 274 43 166 185 70 108 341 284 285 303 104 105 71 88 110 121 100 123 132 136 136 133 143 134 128 130 132 130 131 133 131 125 126 124 128 127 120 120 124 124 123 138 137 139 136 130 143 151
261 7 27 29 75 62 135 165 260 270 249 105 112 74 87 130 119 135 143 141 131 126 133 139 131 134 136 135 135 135 137 136 133 134 134 134 134 129 132 128 142 127 132 135 126 132 139 139 140
271 74 338 289 17 129 155 176 230 254 76 102 96 99 92 92 119 138 124 119 122 123 134 136 134 135 139 137 145 144 143 137 137 140 144 134 137 139 129 122 127 141 140 128 134 135 144 150 153
262 115 23 9 312 94 183 139 251 75 32 69 92 110 112 133 135 138 135 124 127 131 140 141 135 143 152 150 154 146 148 139 142 149 143 144 139 137 137 146 150 144 144 137 146 143 149 165 178
207 48 29 353 317 4 312 20 95 90 128 89 350 117 121 134 146 151 133 126 135 131 142 144 143 151 151 155 155 154 149 144 147 152 148 153 152 159 159 160 152 148 152 147 157 135 147 177 182
154 90 58 32 311 310 331 21 98 105 94 331 153 167 147 137 111 121 129 136 135 138 142 152 153 142 142 154 160 154 163 156 153 165 165 167 172 182 175 169 170 160 168 163 174 147 155 178 220
131 61 146 182 233 283 331 49 26 67 110 32 300 132 136 128 126 127 129 130 147 146 151 157 156 156 156 157 161 162 166 165 168 172 178 181 187 208 206 185 187 177 184 182 187 183 184 204 226
103 142 206 201 182 245 167 78 135 140 49 19 6 119 141 142 150 153 140 143 144 143 162 158 157 161 149 159 151 157 159 162 190 184 212 222 228 199 206 192 178 186 198 203 210 199 194 149 111
161 158 193 182 90 339 160 116 82 109 95 199 145 188 163 156 161 159 144 155 158 147 122 113 102 167 153 140 165 158 157 182 216 196 228 237 256 261 170 166 183 185 217 233 221 193 139 165 184
103 235 189 103 101 308 91 140 108 140 185 161 164 187 231 167 166 149 159 136 143 145 140 172 166 152 137 146 159 160 167 190 216 214 238 287 292 144 147 168 204 189 214 228 229 166 157 165 171
153 218 326 153 137 171 155 99 139 123 188 183 169 200 248 142 144 143 146 134 132 131 146 152 137 142 140 148 161 163 196 183 219 223 211 225 287 94 104 233 222 231 204 215 187 170 150 213 162
38 338 296 137 152 153 160 135 164 183 194 240 231 236 217 159 160 145 135 138 152 150 149 162 136 144 137 155 172 187 202 208 227 215 210 220 133 98 104 93 356 360 287 245 138 175 177 211 168
260 293 357 83 281 148 119 95 189 162 185 225 266 248 161 151 143 154 151 157 166 151 152 159 139 147 146 178 172 200 210 220 224 213 213 203 142 74 97 55 23 293 4 358 129 179 140 35 324
284 260 14 255 266 186 118 235 153 173 210 231 257 196 154 154 164 159 170 170 155 151 160 160 149 143 161 167 172 197 228 219 191 91 279 178 129 116 125 174 253 25 40 61 354 6 11 339 309
301 173 223 175 227 183 160 183 197 196 211 255 241 148 158 165 169 165 157 163 163 164 158 152 146 153 170 162 184 207 241 183 194 311 282 224 152 137 143 202 289 341 359 31 279 293 194 246 291
212 269 228 192 211 197 203 198 190 198 202 226 245 174 168 177 170 168 163 163 169 157 158 155 160 160 160 166 162 216 273 271 242 206 222 199 169 155 120 179 306 8 332 264 290 236 213 192 180
231 293 269 26 359 185 327 38 229 1 317 249 230 211 166 167 183 173 173 160 163 144 151 157 151 159 148 154 152 193 224 244 259 202 172 190 178 162 157 189 192 174 214 215 237 258 49 42 13
329 283 183 285 249 170 123 44 163 125 40 315 324 265 190 175 163 172 174 166 165 161 162 158 162 160 166 155 173 175 172 239 255 147 180 210 186 207 162 180 201 208 186 199 215 16 29 69 40
261 245 206 215 199 194 265 116 128 138 132 267 291 301 243 181 168 164 170 157 164 161 167 162 161 165 163 172 157 174 96 316 58 175 176 158 174 126 262 202 160 286 38 88 317 328 320 106 218
281 332 341 278 55 313 334 284 164 167 195 215 209 243 257 170 171 168 162 166 163 167 170 164 163 166 175 174 180 164 168 184 218 193 155 202 170 174 284 224 177 185 223 206 230 319 209 108 29
252 3 354 75 55 16 323 65 246 174 198 209 221 223 220 183 173 174 170 169 170 165 172 168 171 168 181 174 179 183 176 195 220 209 167 177 276 232 206 277 174 208 226 180 172 310 332 102 138
256 28 34 56 57 346 217 144 273 181 210 245 249 211 209 195 174 176 174 168 168 167 172 171 171 176 176 177 186 181 185 197 212 228 169 152 211 258 272 266 244 234 208 147 142 298 323 200 158
215 250 10 23 329 215 128 330 218 184 232 220 229 226 228 203 171 167 157 152 169 172 175 173 172 177 183 172 172 189 192 200 207 219 179 178 207 234 236 219 216 234 215 225 198 214 224 225 240
242 188 162 200 228 254 132 213 255 221 242 218 232 232 207 199 168 168 161 156 157 158 173 172 173 174 179 181 173 180 195 197 205 214 204 205 192 238 233 145 96 280 273 238 243 215 216 221 231
269 296 236 216 261 121 179 65 320 95 115 257 219 103 141 139 155 154 146 152 153 147 166 167 172 175 176 180 173 183 187 190 197 218 219 226 213 188 155 178 195 233 262 258 233 220 218 176 252
184 235 1 339 314 328 257 165 202 196 206 347 118 102 121 142 145 144 146 158 160 155 148 162 166 171 178 177 183 180 181 196 212 224 256 231 242 154 175 189 202 245 248 243 197 220 250 253 251
274 266 271 189 174 208 225 246 189 189 223 144 292 147 140 135 137 149 154 159 155 151 143 160 166 169 176 180 179 182 191 195 206 212 221 252 221 181 167 193 212 222 233 247 223 230 250 256 259
204 234 296 59 310 300 234 267 153 112 14 29 327 166 148 136 144 153 153 156 154 159 156 160 164 165 177 183 181 189 195 195 199 208 213 219 242 227 203 222 219 235 229 226 229 230 233 240 248